OBJECT A

Satellite information

Favourite Embed

Satellite Type and Status

UNKNOWNIN ORBIT

Key statistics

Satellite OBJECT A at a glance.

Uptime

641

Days in orbit

Revolutions

≈ 15.3

Per day

Orbit

SSO

Sun Synchronous Orbit

Inclination

97.5

Latest

Satellite identification and parameters

Extended collection of information and parameters for OBJECT A.

Object identification

Identified? True

Debris? False

Object name: OBJECT A

International designator: 2023-189A

Object number (NORAD): 58502

Object ID (CCSDS): 58502

Country: PEOPLES REPUBLIC OF CHINA (PRC)

Current information (Y/N): Y

RCS size: MEDIUM

Orbital parameters

Period: 94.12 minutes

Inclination: 97.455 deg

SMA: 6854.045 km

Apoapsis: 483.891 km

Periapsis: 467.929 km

RAAN: 259.1363 deg

Eccentricy: 0.00116436

Argument of periapsis: 186.8 deg

Mean anomaly: 173.3084 deg

Mean motion: 15.29967952 rev/day

Mean motion (dot): 0.00006645 rev/day2

B* drag term: 0.00023126953 1/REarth

Two-line elements (TLE)

Creation date: Sept. 4, 2025, 10:13 a.m.

Reference frame: TEME

Reference center: EARTH

Epoch: Sept. 4, 2025, 7:38 a.m. UTC

TLE line 0: 0 OBJECT A

TLE line 1: 1 58502U 23189A 25247.31826488 .00006645 00000-0 23127-3 0 9992

TLE line 2: 2 58502 97.4550 259.1363 0011644 186.8000 173.3084 15.29967952 97456

Live tracking on map

Real-time ground track for satellite OBJECT A.

In-orbit conjunctions

There are no conjunctions computed for OBJECT A, at the moment. Check back to stay up to date, as we update our databases every day.

Go to all conjunctions

Associated space launch

MisrSat-2 is an Earth observation satellite for the Egyptian Space Agency built by China, with participation from Egyptian engineers and scientists offering opportunity to acquire on-the-project experience in satellite design and integration from China, using facilities available in Egypt. Also riding on this launch is Starpool-02A/B, multi-purpose communication, remote sensing and navigation enhancement satellites from Beijing based ELLIPSPACE.

OBJECT A was lifted into orbit during the mission ‘Long March 2C | MisrSat-2’, on board a Long March 2 space rocket.

The launch took place on Dec. 4, 2023, 4:10 a.m. from Launch Area 4 (SLS-2 / 603).

For more information about the launch, click the button.

Launch to space Long March 2C | MisrSat-2
Long March 2C | MisrSat-2

Agency: N/A

Status: Launch Successful

Launch date: Dec. 4, 2023, 4:10 a.m. UTC

Rocket: Long March 2

Launch pad: Launch Area 4 (SLS-2 / 603)

Location: Jiuquan Satellite Launch Center, People's Republic of China

...

Latest news about this satellite

There are no fresh news available about this satellite. Check back as we update our databases every day.


Newsletter sign-up

Weekly statistics, charts and insights to help you stay on top of the space industry.